FW8987 Weather Reports


time (UTC)temp
F
wind
direction
speed
knots
gust
knots
rain 1hr
in
rain 24hr
in
rain mn
in
humidity
%
barometer
mb
20260510021028 36 162 0.0 0.9 0.00 0.00 0.00 75 1017.2
20260510020023 37 0.0 0.0 0.00 0.00 0.00 74 1017.3
20260510015019 38 165 0.0 0.9 0.00 0.00 0.00 71 1017.5
20260510014035 38 0.0 0.0 0.00 0.00 0.00 70 1017.5
20260510013031 38 179 0.0 0.9 0.00 0.00 0.00 70 1017.6
20260510012026 39 181 0.0 0.9 0.00 0.00 0.00 69 1017.8
20260510011042 40 208 0.0 0.9 0.00 0.00 0.00 67 1018.0
20260510010016 40 171 0.0 0.9 0.00 0.00 0.00 66 1018.0
20260510005031 40 164 0.0 0.9 0.00 0.00 0.00 65 1018.0
20260510004025 41 167 0.9 1.7 0.00 0.00 0.00 64 1018.1
20260510003022 42 172 0.9 0.9 0.00 0.00 0.00 63 1018.3
20260510002016 42 201 0.9 1.7 0.00 0.00 0.00 63 1018.3
20260510001032 42 227 0.0 2.6 0.00 0.00 0.00 62 1018.5
20260510000027 42 210 0.9 3.5 0.00 0.00 0.00 63 1018.5
20260509235023 42 188 0.0 1.7 0.00 0.00 0.00 64 1018.7
20260509234038 43 181 0.0 0.9 0.00 0.00 0.00 63 1018.6
20260509233033 44 179 0.9 3.5 0.00 0.00 0.00 61 1018.7
20260509232049 44 189 0.0 1.7 0.00 0.00 0.00 62 1018.8
20260509231025 44 177 0.0 1.7 0.00 0.00 0.00 61 1019.0
20260509230100 45 200 0.9 2.6 0.00 0.00 0.00 59 1019.0
20260509225036 45 180 0.9 2.6 0.00 0.00 0.00 58 1019.0
20260509224030 46 184 1.7 3.5 0.00 0.00 0.00 57 1019.2
20260509223025 46 191 1.7 3.5 0.00 0.00 0.00 57 1019.3
20260509222020 47 197 1.7 6.1 0.00 0.00 0.00 56 1019.3
20260509221035 47 176 1.7 5.2 0.00 0.00 0.00 56 1019.5
20260509220030 47 193 1.7 5.2 0.00 0.00 0.00 55 1019.5
20260509215106 47 184 1.7 5.2 0.00 0.00 0.00 54 1019.5
20260509214021 48 177 0.9 2.6 0.00 0.00 0.00 53 1019.4
20260509213016 49 184 1.7 5.2 0.00 0.00 0.00 52 1019.6
20260509212031 49 188 0.9 5.2 0.00 0.00 0.00 52 1019.7
20260509211026 49 190 1.7 3.5 0.00 0.00 0.00 50 1019.7
20260509210026 50 176 0.9 5.2 0.00 0.00 0.00 49 1019.7
20260509205016 51 193 2.6 7.8 0.00 0.00 0.00 47 1019.5
20260509204031 51 193 2.6 6.1 0.00 0.00 0.00 47 1019.6
20260509203027 51 189 0.9 5.2 0.00 0.00 0.00 46 1019.7
20260509202023 51 203 2.6 5.2 0.00 0.00 0.00 45 1019.7
20260509201017 52 183 1.7 6.1 0.00 0.00 0.00 45 1019.8
20260509200033 52 186 0.9 5.2 0.00 0.00 0.00 44 1019.9
20260509195029 53 198 2.6 6.1 0.00 0.00 0.00 42 1019.9
20260509194024 53 199 1.7 3.5 0.00 0.00 0.00 43 1020.0
20260509193019 53 183 0.9 3.5 0.00 0.00 0.00 43 1019.8
20260509192035 53 192 1.7 5.2 0.00 0.00 0.00 42 1019.7
20260509191030 53 181 0.9 1.7 0.00 0.00 0.00 43 1019.8
20260509190046 53 186 0.0 0.9 0.00 0.00 0.00 43 1019.8
20260509185041 54 189 0.0 0.9 0.00 0.00 0.00 41 1019.9
20260509184015 55 185 0.0 0.9 0.00 0.00 0.00 39 1019.8
20260509183032 55 187 0.9 2.6 0.00 0.00 0.00 37 1019.7
20260509182026 55 183 0.9 2.6 0.00 0.00 0.00 36 1019.8
20260509181021 56 194 0.9 3.5 0.00 0.00 0.00 35 1019.8
20260509180016 56 189 0.9 1.7 0.00 0.00 0.00 35 1019.7
20260509175032 57 184 0.9 3.5 0.00 0.00 0.00 33 1019.7
20260509174028 58 187 1.7 5.2 0.00 0.00 0.00 32 1019.8
20260509173043 58 188 0.9 3.5 0.00 0.00 0.00 33 1019.7
20260509172017 58 195 1.7 5.2 0.00 0.00 0.00 31 1019.9
20260509171033 58 196 0.9 1.7 0.00 0.00 0.00 32 1019.9
20260509170028 59 192 0.9 1.7 0.00 0.00 0.00 31 1020.0
20260509165023 59 188 0.9 3.5 0.00 0.00 0.00 28 1020.0
20260509164018 59 200 2.6 5.2 0.00 0.00 0.00 27 1020.2
20260509163034 59 198 2.6 5.2 0.00 0.00 0.00 26 1020.3
20260509162054 60 210 3.5 7.8 0.00 0.00 0.00 26 1020.4
20260509161025 61 199 1.7 3.5 0.00 0.00 0.00 28 1020.5
20260509160039 61 198 1.7 3.5 0.00 0.00 0.00 27 1020.5
20260509155035 61 195 1.7 6.1 0.00 0.00 0.00 27 1020.6
20260509154031 61 200 2.6 7.8 0.00 0.00 0.00 26 1020.8
20260509153025 61 192 1.7 3.5 0.00 0.00 0.00 27 1021.0
20260509152041 61 182 2.6 6.1 0.00 0.00 0.00 27 1021.1
20260509151016 61 187 2.6 6.1 0.00 0.00 0.00 27 1021.2
20260509150032 62 188 1.7 6.1 0.00 0.00 0.00 28 1021.3
20260509145027 61 178 1.7 3.5 0.00 0.00 0.00 27 1021.4
20260509144022 61 189 1.7 5.2 0.00 0.00 0.00 27 1021.6
20260509143018 62 188 2.6 6.1 0.00 0.00 0.00 28 1021.8
20260509142033 62 172 2.6 5.2 0.00 0.00 0.00 28 1021.8
20260509141028 62 204 2.6 5.2 0.00 0.00 0.00 27 1021.9
20260509140023 62 163 2.6 5.2 0.00 0.00 0.00 27 1021.9
20260509135018 62 206 3.5 6.1 0.00 0.00 0.00 28 1022.4
20260509134034 62 187 1.7 8.7 0.00 0.00 0.00 27 1022.5
20260509133049 63 174 1.7 6.1 0.00 0.00 0.00 27 1022.6
20260509132025 63 222 2.6 6.1 0.00 0.00 0.00 26 1022.7
20260509131019 63 177 2.6 5.2 0.00 0.00 0.00 27 1022.8
20260509130035 62 190 2.6 6.1 0.00 0.00 0.00 25 1022.9
20260509125030 62 187 2.6 6.1 0.00 0.00 0.00 26 1023.3
20260509124026 62 207 2.6 7.0 0.00 0.00 0.00 26 1023.4
20260509123021 62 211 3.5 7.0 0.00 0.00 0.00 27 1023.5
20260509122016 61 211 3.5 8.7 0.00 0.00 0.00 26 1023.7
20260509121031 62 166 1.7 6.1 0.00 0.00 0.00 27 1023.9
20260509120025 61 197 2.6 7.0 0.00 0.00 0.00 28 1024.0
20260509115021 60 222 3.5 7.0 0.00 0.00 0.00 27 1024.2
20260509114015 61 212 3.5 6.1 0.00 0.00 0.00 27 1024.3
20260509113031 61 193 2.6 7.0 0.00 0.00 0.00 27 1024.4
20260509112027 60 191 2.6 7.8 0.00 0.00 0.00 27 1024.5
20260509111023 59 206 4.3 7.8 0.00 0.00 0.00 27 1024.6
20260509110018 60 199 2.6 6.1 0.00 0.00 0.00 28 1024.8
20260509105033 59 202 3.5 6.1 0.00 0.00 0.00 28 1024.8
20260509104029 59 172 3.5 7.0 0.00 0.00 0.00 27 1025.0
20260509103023 59 191 3.5 7.0 0.00 0.00 0.00 29 1025.2
20260509102018 59 197 4.3 7.8 0.00 0.00 0.00 28 1025.1
20260509101033 59 179 2.6 7.8 0.00 0.00 0.00 29 1025.2
20260509100109 59 165 2.6 6.1 0.00 0.00 0.00 29 1025.3
20260509095104 59 191 2.6 7.8 0.00 0.00 0.00 29 1025.3
20260509094019 58 181 2.6 6.1 0.00 0.00 0.00 29 1025.4
20260509093015 58 183 3.5 8.7 0.00 0.00 0.00 31 1025.6
20260509092031 57 169 2.6 7.0 0.00 0.00 0.00 30 1025.7
20260509091026 59 186 2.6 6.1 0.00 0.00 0.00 30 1025.8
20260509090022 58 179 1.7 5.2 0.00 0.00 0.00 31 1025.8
20260509085016 57 180 2.6 7.8 0.00 0.00 0.00 30 1026.0
20260509084031 56 205 3.5 7.0 0.00 0.00 0.00 29 1026.1
20260509083027 56 209 3.5 7.8 0.00 0.00 0.00 28 1026.2
20260509082026 55 181 3.5 8.7 0.00 0.00 0.00 27 1026.0
20260509081017 55 203 3.5 9.6 0.00 0.00 0.00 28 1026.3
20260509080033 54 217 3.5 7.0 0.00 0.00 0.00 31 1026.4
20260509075028 54 213 3.5 7.8 0.00 0.00 0.00 32 1026.5
20260509074043 54 211 3.5 8.7 0.00 0.00 0.00 32 1026.7
20260509073019 53 193 2.6 7.0 0.00 0.00 0.00 31 1026.6
20260509072034 54 198 2.6 5.2 0.00 0.00 0.00 30 1026.7
20260509071030 53 198 2.6 7.0 0.00 0.00 0.00 30 1026.7
20260509070025 53 193 1.7 3.5 0.00 0.00 0.00 32 1026.6
20260509065059 52 188 1.7 5.2 0.00 0.00 0.00 32 1026.7
20260509064034 52 204 2.6 5.2 0.00 0.00 0.00 31 1026.7
20260509063029 52 187 2.6 7.8 0.00 0.00 0.00 32 1026.7
20260509062024 51 184 2.6 6.1 0.00 0.00 0.00 32 1026.6
20260509061024 51 200 2.6 11.3 0.00 0.00 0.00 33 1026.7
20260509060034 51 188 1.7 5.2 0.00 0.00 0.00 36 1026.7
20260509055130 51 164 0.9 2.6 0.00 0.00 0.00 38 1026.6
20260509054047 50 188 0.9 1.7 0.00 0.00 0.00 37 1026.8
20260509053021 49 185 0.0 1.7 0.00 0.00 0.00 39 1026.7
20260509052017 49 153 0.9 2.6 0.00 0.00 0.00 43 1026.9
20260509051052 49 173 0.0 0.9 0.00 0.00 0.00 43 1026.8
20260509050028 47 179 0.0 0.9 0.00 0.00 0.00 45 1026.7
20260509045042 45 171 0.9 1.7 0.00 0.00 0.00 49 1026.7
20260509044018 43 171 0.9 2.6 0.00 0.00 0.00 56 1026.7
20260509043033 41 165 0.9 1.7 0.00 0.00 0.00 59 1026.7
20260509042028 38 158 0.0 2.6 0.00 0.00 0.00 72 1026.7
20260509041024 39 0.0 0.0 0.00 0.00 0.00 75 1026.5
20260509040020 38 0.0 0.0 0.00 0.00 0.00 75 1026.5
20260509035034 35 0.0 0.0 0.00 0.00 0.00 79 1026.5
20260509034030 34 183 0.0 0.9 0.00 0.00 0.00 81 1026.5
20260509033025 33 0.0 0.0 0.00 0.00 0.00 84 1026.7
20260509032040 33 0.0 0.0 0.00 0.00 0.00 82 1026.6
20260509031015 34 0.0 0.0 0.00 0.00 0.00 82 1026.6
20260509030030 34 0.0 0.0 0.00 0.00 0.00 81 1026.6
20260509025026 34 0.0 0.0 0.00 0.00 0.00 80 1026.7
20260509024021 35 0.0 0.0 0.00 0.00 0.00 80 1026.6
20260509023016 35 0.0 0.0 0.00 0.00 0.00 78 1026.7
20260509022051 35 0.0 0.0 0.00 0.00 0.00 79 1026.7